Regional Weather Roundup
Issued by NWS

Home | Current Version | Previous Version | Graphics & Text | Print | Product List | Glossary On
Versions: 1 2 3 4 5 6 7 8 9 10 11 12 13 14 15 16 17 18 19 20 21 22 23 24 25 26 27 28 29 30 31 32 33 34 35 36 37 38 39 40 41 42 43 44 45 46 47 48 49 50
000
ASUS45 KBOU 021007
RWRCO

WEATHER ROUNDUP FOR COLORADO
NATIONAL WEATHER SERVICE DENVER/BOULDER CO
400 AM MDT THU OCT 02 2014

NOTE: "FAIR" INDICATES FEW OR NO CLOUDS BELOW 12000 FEET WITH NO
SIGNIFICANT WEATHER AND/OR OBSTRUCTIONS TO VISIBILITY.

COZ001>005-013-030-031-021100-
...NORTHWEST COLORADO...

CITY           SKY/WX    TMP DP  RH WIND       PRES   REMARKS
CRAIG          PTCLDY    35  32  88 CALM      30.24R
HAYDEN         CLOUDY    36  32  87 W6        30.23R
MEEKER         FOG       33  31  92 CALM      30.24S VSB 1/2
MOUNT WERNER   NOT AVBL
STEAMBOAT SPGS CLOUDY    35  33  93 CALM      30.22R
WALDEN         PTCLDY    32  28  86 CALM      30.18R
$$

COZ006>008-011-021100-
...WEST CENTRAL VALLEYS...

CITY           SKY/WX    TMP DP  RH WIND       PRES   REMARKS
GRAND JUNCTION CLEAR     39  36  89 NW3       30.22R
MONTROSE       MOCLDY    39  37  92 S6        30.25R
EAGLE          PTCLDY    34  34 100 E5        30.25R WCI  30
RIFLE          PTCLDY    39  37  92 SE3       30.23S
DELTA          FLURRIES  42  39  89 N7        30.23R
NUCLA          CLEAR     37  34  87 E5        30.25S
$$

COZ017>023-064>068-021100-
...SOUTHWEST COLORADO...

CITY           SKY/WX    TMP DP  RH WIND       PRES   REMARKS
DURANGO        CLEAR     41  28  60 VRB7      30.11R
CORTEZ         CLEAR     41  32  70 N8        30.18S
PAGOSA SPRINGS CLEAR     33  32  94 CALM      30.14R
TELLURIDE      PTCLDY   N/A N/A N/A SW8       30.22S
WOLF CREEK PAS MOCLDY    23  19  86 N8        30.22S WCI  14
$$

COZ009-010-012-014-032>034-037-058>063-021100-
...CENTRAL COLORADO...

CITY           SKY/WX    TMP DP  RH WIND       PRES   REMARKS
ASPEN          CLOUDY    34  32  92 CALM      30.22S
BUENA VISTA    PTCLDY    36  24  62 NW15G22   30.16R
COPPER MTN     CLOUDY    23  19  86 MISG      30.22S
BERTHOUD PASS  CLOUDY    16  14  93 NW30G37   30.19S WCI  -4
COTTONWOOD PAS PTCLDY    32  21  64 W14G21    30.19R WCI  22
GUNNISON       PTCLDY    36  28  75 SW7       30.21R
KREMMLING      CLOUDY    34  32  93 CALM      30.22S
LEADVILLE      FLURRIES  26  21  81 N13       30.20R WCI  15
SALIDA         CLOUDY    42  27  54 NW8       30.22R
SUNLIGHT       FOG      N/A N/A N/A NW5       30.29R VSB 1/4
WILKERSON PASS NOT AVBL
$$

COZ069>075-021100-
...SAN LUIS VALLEY/SANGRE DE CRISTO MOUNTAINS...

CITY           SKY/WX    TMP DP  RH WIND       PRES   REMARKS
ALAMOSA        CLOUDY    37  29  72 N9        30.12R
LA VETA PASS   FOG       32  30  93 E3        30.16F VSB<1/4
SAGUACHE       MOCLDY    36  30  80 N8        30.15R
$$

COZ035-036-038>040-021100-
...NORTHERN COLORADO FRONT RANGE...

CITY           SKY/WX    TMP DP  RH WIND       PRES   REMARKS
DENVER INTL AP MOCLDY    42  38  85 W8        30.10R
DMNS CITY PARK   N/A     41  39  94 S2        30.10S
AURORA         PTCLDY    39  39  99 SW6       30.11S
FRONT RANGE AP NOT AVBL
ERIE MUNI ARPT MOCLDY    41  40  95 CALM      30.09S
BOULDER MUN AP MOCLDY    41  41 100 SW5       30.09S
CENTENNIAL     MOCLDY    39  37  92 W7        30.10F
BROOMFIELD     MOCLDY    39  37  93 W6        30.10F
FORT COLLINS   PTCLDY    43  37  81 W6        30.10S
LONGMONT       PTCLDY    43  40  90 CALM      30.11S FOG
$$

COZ041-046-047-076>085-087-088-021100-
...PIKES PEAK/PALMER DIVIDE AND SOUTHERN FOOTHILLS...

CITY           SKY/WX    TMP DP  RH WIND       PRES   REMARKS
COLO. SPRINGS  MOCLDY    41  33  73 N17G23    30.09S
A. F. ACADEMY  PTCLDY    37  33  84 N7        30.10R
ELLICOTT       NOT AVBL
FALCON         MOCLDY    37  33  84 N13       30.10R
FORT CARSON    MOCLDY    41  34  75 N10       30.07R
LIMON          MOCLDY    41  39  93 NW17      30.06S
MONUMENT HILL  PTCLDY    32  32 100 W7        30.11S WCI  26
TRINIDAD       MOCLDY    44  35  70 NW8       30.10R
$$

COZ042>045-048>051-090-091-021100-
...NORTHEAST COLORADO...

CITY           SKY/WX    TMP DP  RH WIND       PRES   REMARKS
GREELEY ARPT   MOCLDY    39  34  81 CALM      30.11R
AKRON          CLOUDY    43  42  97 NW9       30.06R
BURLINGTON     MOCLDY    46  43  89 N17       30.01S
WRAY           CLOUDY    48  47  99 NW10      30.02F
STERLING       CLOUDY    46  45  93 NW8       30.06S
HOLYOKE        CLOUDY    46  43  87 NW10      30.03F
FORT MORGAN    CLOUDY    40  38  93 W6        30.09R
$$

COZ086-089-092>099-021100-
...SOUTHEAST COLORADO...

CITY           SKY/WX    TMP DP  RH WIND       PRES   REMARKS
PUEBLO         PTCLDY    48  35  60 N20       30.04R
LA JUNTA       PTCLDY    46  37  71 SW6       30.04R
LAMAR          PTCLDY    49  43  80 N5        29.98R
SPRINGFIELD      N/A     47  43  86 N17G24    30.00R
$$



USA.gov is the U.S. government's official web portal to all federal, state and local government web resources and services.